SL-14 DEB, 45289

Orbit data source: Space-Track

SL-14 DEB, 45289 is space debris in LEO originally from a launch on Thu, 15 Aug 1991 UTC launched from the Plesetsk Missile And Space Complex (PKMTR). Debris objects in space refer to the collection of defunct objects orbiting the Earth. Examples of debris include non-operational satellites, rocket bodies, and fragments generated from explosions, collisions, or faulty payload assembly.

Loading next visibility...
Identifier
45289, 1991-056AB
Orbit
LEO
Country
Flag of CISCIS
Related business
Manufacturer
Unknown
Mission
Spacecraft
Bus & Motor
Unknown
Mass
Unknown
Launch date (UTC)
1991-08-15 (34 years ago)
Launch vehicle
Unknown
Launch site
Plesetsk Missile And Space Complex (PKMTR)
Object type
Payload
Rocket body
Debris
Shape & HBR
Unknown shape, 0.2 m
Radar Cross Section
Small (<0.1 m²)

Expand to show TLE details & history
Last TLE update: 1 day ago

TLE from 1 day ago
0 SL-14 DEB
1 45289U 91056AB  25305.61415104  .00000221  00000-0  82456-3 0  9999
2 45289  82.5421  23.5709 0178676  33.7770 327.4565 12.83082225267077
Epoch: 2025-11-01T14:44Z
TLE epoch observation values (Epoch: 2025-11-01T14:44:22.649Z)
Latitude
-0.00007°
Longitude
121.33481°
Altitude
1,216.482 km
Speed
7.3 km/s
True Right ascension
01h 34m 17s
True Declination
0° 00' 00"
Sunlit
Object was in full shadow at epoch
Visualization orbit readout
Latitude
Unknown
Longitude
Unknown
Altitude
Unknown
Speed
Unknown
Apparent Right ascension
Unknown
Apparent Declination
Unknown
Sunlit
N/A
Visualization observer readout
Local Sidereal Time
10:42:43
Azimuth
Unknown
Elevation
Unknown
Doppler factor
Unknown
Orbital elements
Apogee altitude
1,464.055 km
Perigee altitude
1,188.732 km
Semi-major axis
7,704.531 km
Eccentricity
0.01787
Inclination
82.5421°
RAAN
23.5709°
Arg. of periapsis
33.777°
True anomaly
326.33403°
Mean anomaly
327.4565°
Eccentric anomaly
326.8974°
Mean motion
3.2094 °/min
Orbital period
112.17 mins
BSTAR
0.00082456
Loading maneuver chart data...
Computing Atmospheric mass density...
Loading historical data...
Loading historical data...
Loading historical data...
Loading historical data...
Loading historical data...
Loading historical data...
Loading historical data...

Documentation

Showing up to 5 results
|